Location: Rathdrum
(47.8130°N, 116.8960°W)
Time: 06:18:31
(UTC-08:00)

Amateur Radio Satellites - All Passes

Search period start: 27 November 2014 05:48
Search period end: 28 November 2014 05:48
Location: Rathdrum, 47.8130°N, 116.8960°W

Satellite Date Start Highest point End Downlink Frequencies (MHz)
Time Altitude Azimuth
CUTE-I 27 Nov 05:50:00 05:55:07 45° 99° (E) 06:00:10 437.470
AIST 2 27 Nov 05:51:24 05:54:22 18° 248° (WSW) 05:57:18 435.215
CUBESAT XI-V 27 Nov 05:55:55 06:00:38 68° 258° (WSW) 06:05:22 437.345
JAS-2 27 Nov 05:59:10 06:06:13 56° 293° (WNW) 06:12:25 435.910
AO-7 27 Nov 06:00:17 06:07:42 37° 306° (NW) 06:15:06 29.400- 29.500
O/OREOS (USA 219) 27 Nov 06:09:32 06:13:56 55° 300° (WNW) 06:18:21 437.305
PRISM 27 Nov 06:35:01 06:35:59 11° 273° (W) 06:36:58 437.425
SO-50 27 Nov 06:47:42 06:49:20 12° 349° (N) 06:50:59 436.795
Cubesat XI-IV 27 Nov 06:48:56 06:54:12 61° 290° (WNW) 06:59:25 437.490
AIST 1 27 Nov 06:52:31 06:56:35 38° 268° (W) 07:00:36
GONETS M04 27 Nov 07:00:21 07:08:19 40° 85° (E) 07:16:20
STRAND 1 27 Nov 07:00:26 07:04:17 21° 269° (W) 07:08:10 437.568
HO-68 27 Nov 07:01:36 07:03:58 12° 83° (E) 07:06:20 435.675
CUTE-I 27 Nov 07:30:26 07:35:00 30° 297° (WNW) 07:39:33 437.470
CUTE 1.7 + AOD 2 27 Nov 07:36:57 07:38:54 13° 88° (E) 07:40:51 437.475
JAS-2 27 Nov 07:46:07 07:49:35 14° 316° (NW) 07:52:55 435.910
O/OREOS (USA 219) 27 Nov 07:53:39 07:54:24 10° 321° (NW) 07:55:09 437.305
UNISAT 6 27 Nov 07:55:03 07:55:42 10° 56° (NE) 07:56:20 437.425
AO-7 27 Nov 07:55:25 07:58:06 12° 330° (NNW) 08:00:47 29.400- 29.500
SEEDS 27 Nov 08:07:01 08:10:24 23° 93° (E) 08:13:47 437.485
GOMX 1 27 Nov 08:07:09 08:10:00 18° 92° (E) 08:12:54 467.674
Oscar 11 27 Nov 08:18:53 08:20:41 12° 88° (E) 08:22:29 145.826/435.025
AAUSAT CUBESAT 2 27 Nov 08:20:53 08:24:19 24° 93° (E) 08:27:45 437.432
DELFI C3 27 Nov 08:21:23 08:21:44 10° 87° (E) 08:22:06 145.870
ANTELSAT 27 Nov 08:21:23 08:24:19 18° 61° (ENE) 08:27:15 437.575/2403.000
POLYITAN 1 27 Nov 08:23:16 08:25:30 14° 59° (ENE) 08:27:44 437.675
QB50P2 27 Nov 08:24:34 08:26:54 15° 59° (ENE) 08:29:14 145.880/145.840
DUCHIFAT 1 27 Nov 08:29:22 08:31:56 16° 60° (ENE) 08:34:29 145.980
SO-50 27 Nov 08:30:04 08:32:02 12° 14° (NNE) 08:34:02 436.795
Cubesat XI-IV 27 Nov 08:31:40 08:33:15 11° 310° (NW) 08:34:49 437.490
CANX-2 27 Nov 08:36:35 08:40:49 55° 100° (E) 08:45:03 2200.000
COMPASS 1 27 Nov 08:36:51 08:40:50 38° 97° (E) 08:44:48 437.405
BRITE-PL 27 Nov 08:42:20 08:46:25 54° 100° (E) 08:50:32 437.365/2234.400
UWE-3 27 Nov 08:43:57 08:45:26 12° 88° (E) 08:46:56 435.000/436.395/437.385
DX 1 27 Nov 08:44:43 08:47:51 19° 92° (E) 08:50:57 434.975-435.025
HO-68 27 Nov 08:46:00 08:53:09 63° 103° (ESE) 09:00:13 435.675
CUBEBUG 2 27 Nov 08:46:05 08:48:24 14° 90° (E) 08:50:44 437.445
NANOSAT C BR1 27 Nov 08:48:04 08:51:26 23° 64° (ENE) 08:54:48 145.865
DOVE 4 27 Nov 08:55:26 08:59:24 41° 98° (E) 09:03:28 437.250
GONETS M04 27 Nov 08:56:20 09:04:55 54° 287° (WNW) 09:13:34
QB50P1 27 Nov 08:57:49 09:01:29 28° 66° (ENE) 09:05:08 145.935-145.965
BUGSAT 1 27 Nov 09:00:47 09:04:18 26° 65° (ENE) 09:07:49 437.445
CUTE 1.7 + AOD 2 27 Nov 09:11:03 09:15:21 72° 286° (WNW) 09:19:37 437.475
TIGRISAT 27 Nov 09:13:06 09:17:14 54° 72° (ENE) 09:21:25 435.000
ZACube-1 27 Nov 09:14:19 09:17:31 21° 93° (E) 09:20:45 437.345
CINEMA 3 27 Nov 09:20:18 09:24:23 47° 99° (E) 09:28:34 145.822/145.860
VELOX 1 27 Nov 09:21:24 09:24:05 16° 90° (E) 09:26:46 145.980
POPSAT HIP 1 27 Nov 09:22:18 09:26:24 49° 71° (ENE) 09:30:30 437.405
UNISAT 6 27 Nov 09:27:29 09:31:45 78° 74° (ENE) 09:36:02 437.425
SEEDS 27 Nov 09:42:24 09:46:24 40° 291° (WNW) 09:50:24 437.485
UKube-1 27 Nov 09:42:53 09:47:14 71° 103° (ESE) 09:51:33 .
GOMX 1 27 Nov 09:44:27 09:48:26 47° 289° (WNW) 09:52:30 467.674
AISAT 27 Nov 09:47:46 09:51:37 28° 95° (E) 09:55:26 437.250
FUNcube-1 27 Nov 09:48:21 09:52:25 44° 99° (E) 09:56:32 145.935
Oscar 11 27 Nov 09:53:02 09:57:24 77° 286° (WNW) 10:01:45 145.826/435.025
DELFI C3 27 Nov 09:53:28 09:57:38 85° 284° (WNW) 10:01:47 145.870
CUBEBUG 1 27 Nov 09:56:11 09:58:23 14° 89° (E) 10:00:33 437.445
AAUSAT CUBESAT 2 27 Nov 09:56:12 10:00:07 37° 291° (WNW) 10:04:02 437.432
ANTELSAT 27 Nov 09:56:36 10:00:46 53° 260° (W) 10:04:59 437.575/2403.000
POLYITAN 1 27 Nov 09:56:40 10:00:55 74° 257° (WSW) 10:05:11 437.675
QB50P2 27 Nov 09:58:04 10:02:19 71° 257° (WSW) 10:06:35 145.880/145.840
50 SAT 27 Nov 10:00:16 10:03:53 30° 96° (E) 10:07:30 437.505
DUCHIFAT 1 27 Nov 10:03:07 10:07:21 64° 258° (WSW) 10:11:35 145.980
SO-50 27 Nov 10:09:51 10:14:08 30° 37° (NE) 10:18:26 436.795
COMPASS 1 27 Nov 10:12:58 10:16:24 24° 295° (WNW) 10:19:50 437.405
CANX-2 27 Nov 10:13:28 10:16:23 18° 298° (WNW) 10:19:19 2200.000
UWE-3 27 Nov 10:18:17 10:22:31 78° 286° (WNW) 10:26:51 435.000/436.395/437.385
DX 1 27 Nov 10:20:10 10:24:22 49° 290° (WNW) 10:28:33 434.975-435.025
CUBEBUG 2 27 Nov 10:21:20 10:25:31 64° 287° (WNW) 10:29:49 437.445
HUMSAT D 27 Nov 10:21:30 10:25:39 61° 101° (E) 10:29:49 437.325/437.525
BRITE-PL 27 Nov 10:21:58 10:24:36 17° 299° (WNW) 10:27:14 437.365/2234.400
NANOSAT C BR1 27 Nov 10:23:07 10:27:07 40° 262° (W) 10:31:09 145.865
QB50P1 27 Nov 10:33:31 10:37:19 31° 264° (W) 10:41:08 145.935-145.965
DOVE 4 27 Nov 10:33:49 10:37:00 21° 296° (WNW) 10:40:14 437.250
HO-68 27 Nov 10:34:16 10:40:27 33° 303° (WNW) 10:46:37 435.675
BUGSAT 1 27 Nov 10:35:47 10:39:41 35° 263° (W) 10:43:35 437.445
ZACube-1 27 Nov 10:50:05 10:54:06 43° 290° (WNW) 10:58:11 437.345
TIGRISAT 27 Nov 10:51:41 10:54:22 16° 270° (W) 10:57:04 435.000
VELOX 1 27 Nov 10:56:43 11:01:07 62° 288° (WNW) 11:05:27 145.980
CINEMA 3 27 Nov 10:58:17 11:01:21 20° 297° (WNW) 11:04:28 145.822/145.860
TISAT 1 27 Nov 10:58:45 11:01:21 16° 90° (E) 11:03:56 437.305
POPSAT HIP 1 27 Nov 10:59:37 11:02:35 18° 268° (W) 11:05:34 437.405
GONETS M04 27 Nov 11:00:12 11:04:18 14° 313° (NW) 11:08:25
ESTCUBE 1 27 Nov 11:00:47 11:05:19 62° 101° (ESE) 11:09:47 437.505/2401.250
Oscar 19 27 Nov 11:07:16 11:11:08 22° 60° (ENE) 11:15:01 437.125/150
UNISAT 6 27 Nov 11:07:41 11:09:08 12° 272° (W) 11:10:35 437.425
SPROUT 27 Nov 11:13:03 11:16:15 20° 92° (E) 11:19:26 437.525
YUBILEINY 27 Nov 11:15:32 11:22:03 23° 57° (ENE) 11:28:30 435.215
UKube-1 27 Nov 11:20:22 11:22:53 15° 301° (WNW) 11:25:25 .
AISAT 27 Nov 11:24:18 11:28:17 34° 293° (WNW) 11:32:15 437.250
FUNcube-1 27 Nov 11:25:20 11:28:32 21° 296° (WNW) 11:31:46 145.935
CUBEBUG 1 27 Nov 11:30:54 11:35:16 70° 287° (WNW) 11:39:34 437.445
DELFI C3 27 Nov 11:31:15 11:32:15 11° 303° (WNW) 11:33:16 145.870
Oscar 11 27 Nov 11:31:54 11:32:49 11° 304° (NW) 11:33:44 145.826/435.025
AO-7 27 Nov 11:35:07 11:35:39 10° 26° (NNE) 11:36:11 29.400- 29.500
50 SAT 27 Nov 11:35:41 11:39:09 27° 294° (WNW) 11:42:36 437.505
SO-50 27 Nov 11:50:13 11:55:00 57° 237° (WSW) 11:59:48 436.795
UWE-3 27 Nov 11:57:51 11:58:23 10° 303° (WNW) 11:58:54 435.000/436.395/437.385
HUMSAT D 27 Nov 11:58:31 12:01:02 16° 299° (WNW) 12:03:35 437.325/437.525
ITAMSAT 1 27 Nov 12:03:18 12:07:41 28° 62° (ENE) 12:12:06 435.822/435.867
CUSAT 1 27 Nov 12:15:16 12:17:42 36° 97° (E) 12:20:12 437.405
AUBIESAT-1 27 Nov 12:24:09 12:27:49 21° 96° (E) 12:31:23 437.475
ITUPSAT 1 27 Nov 12:29:18 12:33:06 23° 93° (E) 12:36:52 437.325
M-CUBED/EXP-1 PRIME 27 Nov 12:30:17 12:34:21 25° 98° (E) 12:38:21 437.505
TISAT 1 27 Nov 12:33:25 12:37:33 56° 288° (WNW) 12:41:40 437.305
ESTCUBE 1 27 Nov 12:38:41 12:41:45 18° 300° (WNW) 12:44:49 437.505/2401.250
SWISSCUBE 27 Nov 12:39:18 12:43:32 30° 95° (E) 12:47:45 437.505
Gurwin Techsat 1B 27 Nov 12:44:30 12:49:20 37° 65° (ENE) 12:54:12 435.225
Oscar 19 27 Nov 12:45:02 12:50:05 60° 259° (WSW) 12:55:10 437.125/150
DANDE 27 Nov 12:48:18 12:50:57 80° 282° (WNW) 12:53:36 436.750
SPROUT 27 Nov 12:48:29 12:52:34 44° 290° (WNW) 12:56:38 437.525
O/OREOS (USA 219) 27 Nov 12:59:17 13:00:53 12° 41° (NE) 13:02:29 437.305
BEESAT 27 Nov 13:09:43 13:14:27 53° 100° (E) 13:19:07 436.000
KKS-1 27 Nov 13:11:05 13:13:04 13° 88° (E) 13:15:03 437.445
YUBILEINY 27 Nov 13:11:31 13:20:18 86° 81° (E) 13:29:00 435.215
AO-7 27 Nov 13:18:49 13:25:47 31° 51° (NE) 13:32:46 29.400- 29.500
HORYU 2 27 Nov 13:29:13 13:33:19 38° 68° (ENE) 13:37:27 437.375
ITAMSAT 1 27 Nov 13:41:58 13:46:58 46° 261° (W) 13:52:01 435.822/435.867
PHONESAT 2.4 27 Nov 13:43:19 13:44:46 12° 155° (SSE) 13:46:13 2401.200-2431.200
MaSat-1 27 Nov 13:44:18 13:45:37 13° 110° (ESE) 13:46:53 437.345
VERMONT LUNAR 27 Nov 13:46:39 13:48:44 15° 159° (SSE) 13:50:50 437.305
AUBIESAT-1 27 Nov 13:58:17 14:03:09 61° 294° (WNW) 14:07:54 437.475
STARS 27 Nov 14:01:53 14:05:41 28° 95° (E) 14:09:27 437.465
M-CUBED/EXP-1 PRIME 27 Nov 14:04:49 14:09:36 50° 296° (WNW) 14:14:17 437.505
ITUPSAT 1 27 Nov 14:06:37 14:11:15 49° 291° (WNW) 14:15:51 437.325
SWISSCUBE 27 Nov 14:17:03 14:21:27 36° 294° (WNW) 14:25:49 437.505
Gurwin Techsat 1B 27 Nov 14:24:29 14:29:19 35° 264° (W) 14:34:11 435.225
JAS-2 27 Nov 14:29:26 14:35:38 27° 55° (NE) 14:41:49 435.910
O/OREOS (USA 219) 27 Nov 14:36:46 14:41:14 64° 62° (ENE) 14:45:41 437.305
KKS-1 27 Nov 14:45:49 14:50:16 76° 286° (WNW) 14:54:42 437.445
BEESAT 27 Nov 14:48:17 14:51:57 22° 299° (WNW) 14:55:37 436.000
RS-15 27 Nov 14:49:00 14:58:51 41° 109° (ESE) 15:08:40 29.354- 29.394
HORYU 2 27 Nov 15:06:27 15:10:07 25° 266° (W) 15:13:49 437.375
AO-7 27 Nov 15:09:35 15:17:53 77° 253° (WSW) 15:26:16 29.400- 29.500
YUBILEINY 27 Nov 15:09:40 15:15:59 23° 283° (WNW) 15:22:17 435.215
MaSat-1 27 Nov 15:17:21 15:19:54 31° 304° (NW) 15:22:16 437.345
PHONESAT 2.4 27 Nov 15:19:45 15:22:48 24° 171° (S) 15:25:51 2401.200-2431.200
VERMONT LUNAR 27 Nov 15:23:30 15:26:32 25° 176° (S) 15:29:34 437.305
AUBIESAT-1 27 Nov 15:35:24 15:37:11 12° 313° (NW) 15:38:58 437.475
CUTE-I 27 Nov 15:37:47 15:41:18 18° 56° (ENE) 15:44:50 437.470
STARS 27 Nov 15:38:15 15:42:13 34° 293° (WNW) 15:46:11 437.465
M-CUBED/EXP-1 PRIME 27 Nov 15:43:15 15:43:34 10° 315° (NW) 15:43:54 437.505
MOZHAYETS 4 27 Nov 16:03:17 16:07:09 25° 93° (E) 16:10:59
JAS-2 27 Nov 16:12:02 16:19:48 86° 255° (WSW) 16:27:42 435.910
O/OREOS (USA 219) 27 Nov 16:17:27 16:20:07 16° 260° (W) 16:22:46 437.305
KKS-1 27 Nov 16:24:59 16:26:09 11° 305° (NW) 16:27:18 437.445
Cubesat XI-IV 27 Nov 16:34:46 16:39:54 49° 68° (ENE) 16:45:03 437.490
PHONESAT 2.4 27 Nov 16:57:57 17:01:01 24° 188° (S) 17:04:04 2401.200-2431.200
RS-15 27 Nov 16:59:40 17:10:34 70° 314° (NW) 17:21:36 29.354- 29.394
VERMONT LUNAR 27 Nov 17:01:38 17:04:26 21° 193° (SSW) 17:07:13 437.305
GONETS M04 27 Nov 17:05:49 17:12:49 25° 59° (ENE) 17:19:44
AO-7 27 Nov 17:06:55 17:12:04 18° 274° (W) 17:17:15 29.400- 29.500
CUTE-I 27 Nov 17:15:22 17:20:44 82° 255° (WSW) 17:26:08 437.470
STRAND 1 27 Nov 17:28:14 17:31:06 15° 88° (E) 17:33:57 437.568
HO-68 27 Nov 17:34:00 17:38:21 17° 46° (NE) 17:42:41 435.675
MOZHAYETS 4 27 Nov 17:40:08 17:44:32 42° 291° (WNW) 17:48:54
CUBESAT XI-V 27 Nov 17:50:00 17:53:48 24° 93° (E) 17:57:34 437.345
AIST 1 27 Nov 17:50:57 17:52:30 12° 81° (E) 17:54:03
JAS-2 27 Nov 18:00:17 18:05:49 21° 275° (W) 18:11:26 435.910
PRISM 27 Nov 18:11:03 18:15:20 88° 105° (ESE) 18:19:34 437.425
Cubesat XI-IV 27 Nov 18:15:43 18:20:13 27° 266° (W) 18:24:45 437.490
BRITE-PL 27 Nov 18:20:55 18:23:14 14° 59° (ENE) 18:25:29 437.365/2234.400
CUTE 1.7 + AOD 2 27 Nov 18:33:40 18:36:10 16° 60° (ENE) 18:38:42 437.475
PHONESAT 2.4 27 Nov 18:37:31 18:39:03 12° 205° (SSW) 18:40:36 2401.200-2431.200
PCSat 27 Nov 18:45:51 18:50:58 45° 115° (ESE) 18:56:07 145.827
BEESAT 3 27 Nov 18:52:15 18:55:34 24° 115° (ESE) 18:58:56 437.485
CUTE-I 27 Nov 18:59:28 19:01:39 12° 274° (W) 19:03:50 437.470
GONETS M04 27 Nov 19:02:00 19:10:54 87° 262° (W) 19:19:41
SEEDS 27 Nov 19:03:03 19:06:30 25° 65° (ENE) 19:09:58 437.485
STRAND 1 27 Nov 19:05:48 19:10:56 80° 287° (WNW) 19:16:01 437.568
UKube-1 27 Nov 19:08:07 19:10:06 13° 57° (ENE) 19:12:05 .
BEESAT 2 27 Nov 19:08:55 19:12:34 31° 117° (ESE) 19:16:17 435.950
DELFI C3 27 Nov 19:13:23 19:14:54 12° 58° (ENE) 19:16:25 145.870
RS-15 27 Nov 19:15:27 19:25:14 35° 345° (NNW) 19:35:14 29.354- 29.394
AAUSAT CUBESAT 2 27 Nov 19:15:51 19:19:19 26° 66° (ENE) 19:22:48 437.432
Oscar 11 27 Nov 19:17:05 19:19:44 16° 60° (ENE) 19:22:24 145.826/435.025
HO-68 27 Nov 19:17:42 19:24:48 66° 67° (ENE) 19:31:55 435.675
GOMX 1 27 Nov 19:18:29 19:22:33 31° 68° (ENE) 19:26:24 467.674
AIST 1 27 Nov 19:25:04 19:29:29 78° 280° (W) 19:33:56
CUBESAT XI-V 27 Nov 19:27:00 19:31:26 43° 291° (WNW) 19:35:49 437.345
COMPASS 1 27 Nov 19:32:00 19:35:55 41° 70° (ENE) 19:39:52 437.405
CANX-2 27 Nov 19:33:03 19:37:13 61° 73° (ENE) 19:41:25 2200.000
DX 1 27 Nov 19:43:39 19:47:20 27° 65° (ENE) 19:51:02 434.975-435.025
UWE-3 27 Nov 19:44:45 19:47:15 16° 61° (ENE) 19:49:45 435.000/436.395/437.385
CUBEBUG 2 27 Nov 19:48:10 19:51:09 19° 63° (ENE) 19:54:06 437.445
PRISM 27 Nov 19:48:32 19:50:14 12° 303° (WNW) 19:51:56 437.425
AIST 2 27 Nov 19:51:49 19:55:49 42° 120° (ESE) 19:59:54 435.215
BRITE-PL 27 Nov 19:56:21 20:01:15 86° 257° (WSW) 20:05:47 437.365/2234.400
DOVE 4 27 Nov 20:04:37 20:09:05 65° 74° (ENE) 20:13:20 437.250
CUTE 1.7 + AOD 2 27 Nov 20:07:27 20:11:38 64° 259° (WSW) 20:15:52 437.475
ZACube-1 27 Nov 20:14:12 20:17:38 25° 66° (ENE) 20:21:04 437.345
VELOX 1 27 Nov 20:22:32 20:26:03 23° 63° (ENE) 20:29:35 145.980
CINEMA 3 27 Nov 20:25:45 20:30:02 66° 74° (ENE) 20:34:13 145.822/145.860
PCSat 27 Nov 20:29:29 20:34:30 37° 316° (NW) 20:39:32 145.827
BEESAT 3 27 Nov 20:29:35 20:33:34 46° 314° (NW) 20:37:37 437.485
ESTCUBE 1 27 Nov 20:30:15 20:32:12 13° 56° (ENE) 20:34:10 437.505/2401.250
SEEDS 27 Nov 20:38:21 20:42:12 35° 263° (W) 20:46:06 437.485
UKube-1 27 Nov 20:41:16 20:45:38 87° 255° (WSW) 20:50:01 .
DELFI C3 27 Nov 20:45:30 20:49:34 84° 256° (WSW) 20:53:42 145.870
STRAND 1 27 Nov 20:46:46 20:49:19 14° 306° (NW) 20:51:52 437.568
BEESAT 2 27 Nov 20:46:56 20:50:48 37° 317° (NW) 20:54:44 435.950
FUNcube-1 27 Nov 20:47:55 20:51:59 53° 72° (ENE) 20:56:03 145.935
AISAT 27 Nov 20:49:16 20:53:27 40° 68° (ENE) 20:57:39 437.250
AAUSAT CUBESAT 2 27 Nov 20:51:06 20:54:53 34° 264° (W) 20:58:43 437.432
Oscar 11 27 Nov 20:51:10 20:55:26 64° 259° (WSW) 20:59:45 145.826/435.025
50 SAT 27 Nov 20:52:42 20:56:16 31° 68° (ENE) 20:59:52 437.505
CUBEBUG 1 27 Nov 20:55:42 20:58:52 20° 62° (ENE) 21:02:02 437.445
GOMX 1 27 Nov 20:56:33 21:00:41 31° 264° (W) 21:04:37 467.674
GONETS M04 27 Nov 21:00:24 21:06:25 21° 285° (WNW) 21:12:25
HO-68 27 Nov 21:07:00 21:13:01 28° 267° (W) 21:19:06 435.675
COMPASS 1 27 Nov 21:08:40 21:11:50 21° 268° (W) 21:15:03 437.405
CANX-2 27 Nov 21:11:13 21:13:35 15° 271° (W) 21:15:58 2200.000
HUMSAT D 27 Nov 21:17:13 21:21:19 69° 74° (ENE) 21:25:25 437.325/437.525
UNISAT 6 27 Nov 21:17:44 21:19:51 13° 89° (E) 21:22:00 437.425
UWE-3 27 Nov 21:19:14 21:23:24 61° 259° (W) 21:27:32 435.000/436.395/437.385
DX 1 27 Nov 21:19:25 21:23:28 36° 262° (W) 21:27:31 434.975-435.025
CUBEBUG 2 27 Nov 21:23:29 21:27:34 48° 261° (W) 21:31:38 437.445
AIST 2 27 Nov 21:30:46 21:34:35 31° 320° (NW) 21:38:27 435.215
RS-15 27 Nov 21:31:20 21:41:23 37° 19° (NNE) 21:51:44 29.354- 29.394
BRITE-PL 27 Nov 21:39:16 21:40:21 11° 273° (W) 21:41:25 437.365/2234.400
POLYITAN 1 27 Nov 21:40:39 21:43:01 15° 90° (E) 21:45:23 437.675
DANDE 27 Nov 21:41:29 21:43:45 13° 67° (ENE) 21:46:18 436.750
QB50P2 27 Nov 21:41:45 21:44:12 15° 90° (E) 21:46:40 145.880/145.840
DOVE 4 27 Nov 21:44:50 21:47:16 14° 270° (W) 21:49:39 437.250
ANTELSAT 27 Nov 21:45:32 21:49:13 25° 94° (E) 21:52:56 437.575/2403.000
DUCHIFAT 1 27 Nov 21:46:14 21:48:54 16° 91° (E) 21:51:33 145.980
ZACube-1 27 Nov 21:50:05 21:53:55 34° 263° (W) 21:57:44 437.345
TISAT 1 27 Nov 21:54:50 21:57:59 20° 63° (ENE) 22:01:08 437.305
VELOX 1 27 Nov 21:58:08 22:02:25 44° 261° (W) 22:06:43 145.980
ISS 27 Nov 22:01:41 22:03:55 17° 138° (SE) 22:06:10 145.825
ESTCUBE 1 27 Nov 22:03:49 22:08:22 85° 75° (ENE) 22:12:58 437.505/2401.250
NANOSAT C BR1 27 Nov 22:05:22 22:08:54 25° 94° (E) 22:12:24 145.865
CINEMA 3 27 Nov 22:05:35 22:07:42 13° 271° (W) 22:09:48 145.822/145.860
SPROUT 27 Nov 22:10:46 22:14:19 25° 65° (ENE) 22:17:52 437.525
BEESAT 3 27 Nov 22:10:56 22:12:50 13° 336° (NNW) 22:14:44 437.485
BUGSAT 1 27 Nov 22:15:13 22:18:39 26° 95° (E) 22:22:03 437.445
QB50P1 27 Nov 22:15:23 22:19:11 32° 96° (E) 22:22:58 145.935-145.965
PCSat 27 Nov 22:17:03 22:19:33 13° 340° (NNW) 22:22:03 145.827
FUNcube-1 27 Nov 22:26:06 22:28:42 16° 270° (W) 22:31:17 145.935
AISAT 27 Nov 22:26:36 22:30:14 24° 266° (W) 22:33:53 437.250
50 SAT 27 Nov 22:28:16 22:31:38 25° 266° (W) 22:35:00 437.505
BEESAT 2 27 Nov 22:28:54 22:30:17 11° 339° (NNW) 22:31:40 435.950
CUBEBUG 1 27 Nov 22:30:32 22:34:54 54° 260° (W) 22:39:16 437.445
TIGRISAT 27 Nov 22:37:49 22:42:16 77° 103° (ESE) 22:46:48 435.000
POPSAT HIP 1 27 Nov 22:40:15 22:44:26 57° 101° (E) 22:48:35 437.405
BEESAT 27 Nov 22:44:49 22:47:17 14° 56° (NE) 22:49:46 436.000
CUSAT 1 27 Nov 22:47:36 22:52:07 57° 77° (ENE) 22:58:12 437.405
UNISAT 6 27 Nov 22:52:43 22:57:10 76° 286° (WNW) 23:01:42 437.425
HUMSAT D 27 Nov 22:55:52 22:57:37 12° 272° (W) 22:59:23 437.325/437.525
AIST 2 27 Nov 23:13:38 23:14:35 11° 342° (NNW) 23:15:31 435.215
POLYITAN 1 27 Nov 23:15:12 23:19:24 61° 287° (WNW) 23:23:34 437.675
QB50P2 27 Nov 23:16:21 23:20:32 60° 288° (WNW) 23:24:42 145.880/145.840
AUBIESAT-1 27 Nov 23:16:23 23:20:22 40° 62° (ENE) 23:24:42 437.475
MaSat-1 27 Nov 23:17:33 23:19:51 63° 59° (ENE) 23:22:11 437.345
DUCHIFAT 1 27 Nov 23:21:00 23:25:08 54° 288° (WNW) 23:29:14 145.980
ANTELSAT 27 Nov 23:21:59 23:26:09 40° 291° (WNW) 23:30:23 437.575/2403.000
DANDE 27 Nov 23:22:59 23:27:26 85° 259° (W) 23:33:31 436.750
M-CUBED/EXP-1 PRIME 27 Nov 23:23:02 23:27:08 50° 64° (ENE) 23:31:36 437.505
TISAT 1 27 Nov 23:29:25 23:33:32 47° 261° (W) 23:37:40 437.305
ISS 27 Nov 23:36:53 23:40:11 87° 156° (SSE) 23:43:29 145.825
ITUPSAT 1 27 Nov 23:39:23 23:43:50 39° 67° (ENE) 23:48:19 437.325
NANOSAT C BR1 27 Nov 23:41:01 23:44:52 34° 292° (WNW) 23:48:41 145.865
ESTCUBE 1 27 Nov 23:44:13 23:45:53 12° 273° (W) 23:47:34 437.505/2401.250
RS-15 27 Nov 23:44:33 23:55:46 77° 49° (NE) 00:07:26 29.354- 29.394
SPROUT 27 Nov 23:46:15 23:50:16 37° 263° (W) 23:54:17 437.525
SWISSCUBE 27 Nov 23:49:13 23:53:52 51° 70° (ENE) 23:58:32 437.505
BUGSAT 1 27 Nov 23:50:34 23:54:13 32° 293° (WNW) 23:57:49 437.445
QB50P1 27 Nov 23:51:25 23:55:01 28° 294° (WNW) 23:58:37 145.935-145.965
KKS-1 28 Nov 00:12:27 00:15:37 19° 61° (ENE) 00:18:47 437.445
TIGRISAT 28 Nov 00:16:04 00:18:29 15° 301° (WNW) 00:20:56 435.000
POPSAT HIP 1 28 Nov 00:17:12 00:19:57 17° 299° (WNW) 00:22:41 437.405
BEESAT 28 Nov 00:19:38 00:24:26 89° 75° (ENE) 00:29:17 436.000
YUBILEINY 28 Nov 00:23:17 00:29:16 21° 76° (ENE) 00:35:13 435.215
CUSAT 1 28 Nov 00:31:32 00:35:10 21° 268° (W) 00:39:33 437.405
UNISAT 6 28 Nov 00:32:07 00:33:14 11° 304° (NW) 00:34:21 437.425
AUBIESAT-1 28 Nov 00:52:00 00:55:32 25° 262° (W) 00:59:19 437.475
Oscar 19 28 Nov 00:53:08 00:57:56 37° 97° (E) 01:02:43 437.125/150
M-CUBED/EXP-1 PRIME 28 Nov 00:59:21 01:02:31 20° 264° (W) 01:05:53 437.505
Gurwin Techsat 1B 28 Nov 01:00:00 01:00:53 10° 84° (E) 01:01:45 435.225
STARS 28 Nov 01:02:25 01:06:29 38° 68° (ENE) 01:10:34 437.465
DANDE 28 Nov 01:09:06 01:10:42 11° 271° (W) 01:12:25 436.750
ISS 28 Nov 01:13:53 01:17:02 41° 355° (N) 01:20:12 145.825
ITUPSAT 1 28 Nov 01:17:39 01:21:49 29° 265° (W) 01:26:01 437.325
SWISSCUBE 28 Nov 01:28:20 01:32:01 22° 268° (W) 01:35:44 437.505
BEESAT 3 28 Nov 01:31:09 01:33:09 13° 25° (NNE) 01:35:10 437.485
PCSat 28 Nov 01:47:18 01:51:18 20° 33° (NNE) 01:55:17 145.827
KKS-1 28 Nov 01:47:32 01:51:54 55° 259° (W) 01:56:17 437.445
BEESAT 2 28 Nov 01:48:14 01:50:43 15° 28° (NNE) 01:53:11 435.950
ITAMSAT 1 28 Nov 01:51:08 01:56:09 48° 99° (E) 02:01:08 435.822/435.867
RS-15 28 Nov 01:57:32 02:07:17 37° 253° (WSW) 02:17:26 29.354- 29.394
BEESAT 28 Nov 02:01:03 02:02:58 12° 273° (W) 02:04:54 436.000
SO-50 28 Nov 02:09:14 02:12:36 21° 113° (ESE) 02:16:03 436.795
YUBILEINY 28 Nov 02:15:58 02:24:47 87° 98° (E) 02:33:36 435.215
Oscar 19 28 Nov 02:32:37 02:37:14 34° 295° (WNW) 02:41:50 437.125/150
AIST 2 28 Nov 02:32:39 02:35:41 18° 31° (NNE) 02:38:42 435.215
Gurwin Techsat 1B 28 Nov 02:36:28 02:41:48 72° 103° (ESE) 02:47:06 435.225
STARS 28 Nov 02:39:28 02:43:06 25° 266° (W) 02:46:44 437.465
ISS 28 Nov 02:50:47 02:54:02 55° 15° (NNE) 02:57:17 145.825
HORYU 2 28 Nov 02:53:40 02:58:02 48° 100° (E) 03:02:23 437.375
AO-7 28 Nov 03:07:42 03:14:51 30° 94° (E) 03:21:57 29.400- 29.500
BEESAT 3 28 Nov 03:08:18 03:12:23 48° 46° (NE) 03:16:26 437.485
MOZHAYETS 4 28 Nov 03:08:38 03:12:48 35° 67° (ENE) 03:17:00
JAS-2 28 Nov 03:21:54 03:24:41 13° 79° (E) 03:27:21 435.910
BEESAT 2 28 Nov 03:25:39 03:29:52 62° 49° (NE) 03:34:00 435.950
PCSat 28 Nov 03:30:10 03:35:38 77° 55° (NE) 03:41:03 145.827
ITAMSAT 1 28 Nov 03:31:06 03:35:25 27° 298° (WNW) 03:39:42 435.822/435.867
PRISM 28 Nov 03:32:15 03:34:21 14° 58° (ENE) 03:36:27 437.425
SO-50 28 Nov 03:48:12 03:52:43 61° 312° (NW) 03:57:24 436.795
AIST 2 28 Nov 04:10:38 04:14:59 83° 52° (NE) 04:19:16 435.215
YUBILEINY 28 Nov 04:15:55 04:22:50 25° 301° (WNW) 04:29:46 435.215
Gurwin Techsat 1B 28 Nov 04:17:28 04:21:14 20° 302° (WNW) 04:24:59 435.225
ISS 28 Nov 04:27:32 04:30:38 38° 214° (SW) 04:33:43 145.825
HORYU 2 28 Nov 04:30:59 04:34:25 22° 298° (WNW) 04:37:52 437.375
MOZHAYETS 4 28 Nov 04:46:02 04:50:04 30° 265° (W) 04:54:08
STRAND 1 28 Nov 04:46:50 04:51:21 32° 64° (ENE) 04:55:52 437.568
BEESAT 3 28 Nov 04:47:02 04:50:22 23° 245° (WSW) 04:53:40 437.485
Cubesat XI-IV 28 Nov 04:50:05 04:52:53 14° 87° (E) 04:55:41 437.490
O/OREOS (USA 219) 28 Nov 04:52:35 04:56:43 37° 107° (ESE) 05:00:51 437.305
CUBESAT XI-V 28 Nov 04:56:41 05:00:58 35° 67° (ENE) 05:05:16 437.345
AO-7 28 Nov 04:59:58 05:08:18 72° 294° (WNW) 05:16:36 29.400- 29.500
JAS-2 28 Nov 05:04:11 05:11:20 69° 101° (E) 05:17:34 435.910
BEESAT 2 28 Nov 05:04:52 05:07:44 18° 248° (WSW) 05:10:34 435.950
PRISM 28 Nov 05:05:06 05:09:19 79° 256° (WSW) 05:13:36 437.425
PCSat 28 Nov 05:14:43 05:18:25 19° 254° (WSW) 05:22:07 145.827
AIST 1 28 Nov 05:29:08 05:33:14 36° 74° (ENE) 05:37:15
CUTE-I 28 Nov 05:29:26 05:34:07 30° 95° (E) 05:38:45 437.470
SO-50 28 Nov 05:31:09 05:34:14 17° 335° (NNW) 05:37:23 436.795
